Location: Caualo
(45.5667°N, 10.8667°E)
Time: 23:02:23
(UTC+00:00)

In-Cosmos 22 Rocket - Pass Details

Date: 07 October 2020
Orbit: 790 x 889 km, 81.2° (Epoch: 27 October)

Event Time Altitude Azimuth Distance (km) Brightness Sun altitude
Rises 19:47:34 0° 352° (N) 3,315 7.7 -31.9°
Reaches altitude 10° 19:50:00 10° 357° (N) 2,374 6.8 -32.3°
Enters shadow 19:52:01 23° 4° (N) 1,640 5.9 -32.6°
